Location: Cathedral Gorge
(37.8167°N, 114.4167°W)
Time: 04:32:08
(UTC-08:00)

Hubble Space Telescope - Visible Passes

Search period start: 20 January 2018 00:00
Search period end: 30 January 2018 00:00
Orbit: 537 x 541 km, 28.5° (Epoch: 19 January)

Date Brightness Start Highest point End Pass type
(mag) Time Alt. Az. Time Alt. Az. Time Alt. Az.
22 Jan 3.5 19:18:53 10° SSW 19:19:17 11° SSW 19:19:17 11° SSW visible
23 Jan 3.2 19:08:18 10° SW 19:09:42 15° SSW 19:09:42 15° SSW visible
24 Jan 3.4 17:20:06 10° SSE 17:20:17 10° SSE 17:20:29 10° SSE visible
24 Jan 2.8 18:57:47 10° SW 19:00:06 19° S 19:00:06 19° S visible
25 Jan 2.6 18:47:19 10° SW 18:50:27 21° S 18:50:29 21° S visible
26 Jan 2.5 18:36:54 10° SW 18:40:06 22° S 18:40:52 21° SSE visible
27 Jan 2.6 18:26:32 10° SW 18:29:46 22° S 18:31:17 18° SSE visible
28 Jan 2.7 18:16:12 10° SW 18:19:25 22° S 18:21:43 14° SE visible
29 Jan 2.8 18:05:54 10° SW 18:09:04 21° S 18:12:12 10° SE visible
